sat.trackr.live / text

‹ back to catalog

WGS 10 (USA 291)

NORAD 44071 · 2019-014A

PAYLOAD ACTIVE UNKNOWN

§ Identity

Operator
Country
US
Launch date
2019-03-16
Launch site
AFETR
Launch vehicle
Mass (kg)
RCS (m²)

Purposes: comms

External: N2YO · Heavens-Above · Gunter

§ Orbital elements

Epoch: 2026-05-24T12:37:46.270272Z

Period
1,436.10 min
Inclination
0.0151°
Eccentricity
0.0000448
Mean motion
1.00271850 rev/d
Perigee alt
35,784.7 km
Apogee alt
35,788.5 km
Semi-major
42,164.7 km
B*
0.0000e+0
RAAN
334.1212°
Arg perigee
18.8951°
Mean anomaly
138.8528°
Rev number
2,638

§ Raw data

WGS 10 (USA 291)1 44071U 19014A   26144.52622998  .00000042  00000+0  00000+0 0  99952 44071   0.0151 334.1212 0000448  18.8951 138.8528  1.00271850 26387

JSON: /api/v1/satellites/44071 · /tle

For live sub-satellite position, see the globe view (requires WebGL).

§ Visibility from observer

Set your observer location to see the next 7 days of passes ≥ 10°. The values pass through the URL so the page stays shareable.

No JS? Fill the form by hand. The geolocation button needs JavaScript.